Location: Poughquag
(41.6090°N, 73.6820°W)
Time: 14:51:31
(UTC-04:00)

Vanguard 3 - Pass Details

Date: 02 June 2020
Orbit: 510 x 3261 km, 33.3° (Epoch: 05 July)

Event Time Altitude Azimuth Distance (km) Brightness Sun altitude
Exits shadow 04:21:55 - 245° (WSW) 6,103 11.0 -9.9°
Reaches altitude 10° 04:22:54 10° 245° (WSW) 5,870 10.9 -9.8°
Maximum altitude 04:39:14 56° 174° (S) 2,482 9.4 -7.4°
Drops below altitude 10° 04:48:58 10° 99° (E) 3,640 11.2 -6.0°
Sets 04:51:26 0° 95° (E) 4,324 11.7 -5.6°
